User: anonymous   Login
Location: Unspecified
(0.0000°N, 0.0000°E)
Time: 02:24:38
(UTC+00:00)
Language:

Amsat-Oscar-8 - Orbit

View from above orbital plane
View from above orbital plane
View from above satellite
View from above satellite

Ground track
Ground track

The orbit data is extracted from the following two-line orbital elements,

1 10703U 78026B   22138.51565832 -.00000176  00000-0 -90118-4 0  9994
2 10703  99.1490  99.0627 0006805  60.4458  59.1476 13.99315410255554
Epoch (UTC): 18 May 2022 12:22:32
Eccentricity: 0.0006805
inclination: 99.1490°
perigee height: 891 km
apogee height: 901 km
right ascension of ascending node: 99.0627°
argument of perigee: 60.4458°
revolutions per day: 13.99315410
mean anomaly at epoch: 59.1476°
orbit number at epoch: 25555

The dashed part of the orbit path shows where the satellite is in the earth's shadow,  

DLR